Wind_Speed
51 45 41 38 38 38 38 35 31 30 28 24 25 28 26 25 27 30 31 31 35 36 39 51 54 57 58 57 51 52 50 50 49 47 43 43 42 43 42 44 46 48 50
44 40 38 37 36 33 31 28 26 22 22 20 20 23 22 19 22 26 29 31 34 36 36 41 46 55 53 53 52 49 49 48 47 43 43 43 42 42 43 44 44 45 47
38 37 37 34 31 28 25 25 24 23 21 22 24 20 19 20 24 27 26 26 26 31 36 42 51 25 42 43 47 46 42 44 47 43 42 41 41 44 46 45 47 48 48
34 34 33 30 25 25 24 24 23 22 21 22 23 23 21 21 24 27 30 24 22 27 34 38 40 44 36 31 20 29 40 42 43 44 42 42 42 42 42 41 42 49 53
31 32 30 29 28 28 27 27 26 25 25 24 22 21 22 21 22 21 18 22 23 23 22 24 29 28 30 33 25 32 20 25 34 37 39 40 38 38 38 44 49 50 49
29 31 32 31 30 29 27 25 24 23 22 22 22 21 21 19 18 18 17 20 17 21 15 16 19 28 15 6 17 10 14 13 19 26 29 31 32 39 43 41 41 40 39
32 32 33 32 29 27 25 24 22 20 18 18 18 19 17 15 15 16 13 12 9 9 12 8 8 13 16 16 14 16 16 15 16 20 22 24 29 31 29 30 30 29 25
35 34 33 32 30 27 25 23 21 19 17 16 15 15 13 11 10 11 11 9 7 7 11 6 8 10 10 8 9 10 11 12 14 15 16 17 19 21 16 15 17 14 11
32 32 31 31 29 29 27 24 22 20 18 17 16 15 14 13 13 11 9 8 8 8 7 6 5 3 4 4 6 7 7 7 7 9 9 9 6 3 4 4 5 5 3
32 32 31 32 31 28 26 25 23 21 19 18 15 14 15 15 15 13 13 11 10 8 8 8 7 4 2 2 2 1 2 4 3 1 4 2 2 4 4 7 12 13 14
33 33 32 33 31 29 27 27 26 23 21 21 21 21 20 20 20 19 18 17 16 13 12 11 10 9 8 7 5 4 3 1 5 7 3 3 7 7 9 12 13 14 16
36 34 33 33 32 30 28 27 27 28 28 28 26 25 23 21 20 19 19 17 16 14 13 13 13 13 12 11 9 8 6 6 6 4 5 10 10 10 12 13 13 14 14
36 35 35 35 33 31 30 29 29 30 29 28 27 25 24 23 22 20 18 19 19 20 19 18 17 17 16 15 16 14 12 10 9 9 12 13 12 13 14 13 13 14 15
38 37 35 35 33 31 30 30 29 28 28 27 27 27 29 28 28 25 23 23 22 22 20 19 18 17 18 19 17 15 17 15 13 13 14 13 15 15 15 14 15 15 16
41 39 37 35 32 29 29 29 29 28 27 28 28 28 30 29 28 28 27 25 24 23 21 19 17 17 16 17 18 18 17 17 18 17 16 16 17 17 17 16 15 17 16
38 40 39 36 32 25 25 27 28 28 27 28 29 29 30 29 27 27 25 24 24 22 21 20 17 16 15 14 13 14 16 17 17 18 18 17 17 16 16 16 16 15 14
35 36 37 36 33 24 19 22 26 27 27 29 29 29 29 29 27 26 26 25 25 24 22 22 20 19 19 20 19 17 15 15 16 16 17 16 15 14 14 14 13 13 11
34 35 36 34 33 28 22 20 19 22 25 26 27 28 27 28 26 25 25 24 23 21 21 20 20 19 17 16 18 17 16 16 15 14 14 15 14 13 12 12 11 10 9
32 34 35 34 30 29 25 21 18 18 20 21 22 25 25 24 25 26 27 25 22 21 20 19 20 19 17 16 16 16 15 14 13 13 12 12 12 13 12 11 11 10 10
31 31 32 33 31 27 24 22 18 15 15 16 18 20 21 23 23 23 23 23 23 22 22 22 21 19 16 15 14 13 13 12 10 12 11 11 10 10 9 9 8 7 7
30 31 30 30 30 28 26 23 20 18 16 15 15 16 18 19 20 21 20 20 22 21 20 20 21 21 19 17 16 13 10 11 11 10 8 9 8 9 8 7 7 6 7
29 31 31 29 27 27 26 27 26 22 16 13 12 13 15 15 17 18 19 20 20 19 19 19 20 21 21 20 19 17 15 11 8 8 8 7 6 6 7 7 6 5 6
23 25 28 29 29 27 24 26 28 30 25 15 8 8 9 11 13 15 16 17 18 19 19 18 18 18 19 19 19 18 16 14 12 9 5 4 4 3 4 4 4 4 4
21 21 21 23 25 27 26 25 28 33 34 23 14 12 11 10 11 11 12 14 15 15 16 17 18 18 17 16 16 16 17 15 14 11 7 6 4 2 2 2 2 3 4
22 20 17 18 19 21 24 25 25 29 31 24 18 17 17 16 15 14 14 14 14 14 14 14 15 15 16 16 16 14 14 14 14 14 11 7 4 2 2 2 1 1 2
20 20 17 15 15 15 17 20 22 23 25 25 18 15 15 15 15 16 16 17 17 17 18 18 17 17 16 15 13 13 12 11 11 12 12 10 6 4 2 2 3 3 4
Wind_Direction
323 327 324 323 320 319 316 314 312 310 306 303 300 297 291 280 274 265 261 260 258 255 253 250 247 251 250 251 249 253 255 257 261 261 261 264 263 266 266 268 272 273 273
322 322 322 321 322 322 320 322 319 319 320 312 310 307 301 296 285 274 268 267 260 256 256 248 250 248 253 261 260 259 259 259 265 265 264 265 267 267 269 272 273 276 279
323 324 327 329 329 328 324 331 330 321 318 316 318 312 306 298 289 273 270 271 268 265 259 254 254 230 240 248 262 260 265 265 263 262 264 267 267 268 269 273 274 276 277
329 333 335 337 341 338 332 329 326 323 320 314 313 309 302 299 299 288 265 260 273 274 267 259 261 262 248 256 246 250 252 254 257 261 263 263 265 269 269 273 278 278 277
339 341 344 344 338 333 328 326 322 319 316 312 306 302 302 301 300 301 259 265 276 293 273 266 268 260 256 254 255 260 243 252 254 253 257 257 262 264 268 274 277 281 283
347 347 340 338 334 333 333 332 329 325 318 316 313 310 298 305 301 317 273 275 285 285 279 270 284 223 298 296 245 255 268 275 249 254 255 257 261 268 272 280 285 283 286
351 348 346 347 346 343 341 340 336 329 321 317 312 307 306 311 320 329 315 295 290 274 256 256 257 261 277 281 268 272 271 256 254 253 254 261 268 276 278 279 284 287 292
356 360 3 5 8 7 6 5 3 0 356 352 351 355 350 335 319 332 346 353 307 287 299 268 227 245 271 291 282 260 253 264 267 269 269 271 268 268 276 293 299 298 294
7 10 9 8 8 7 8 9 9 7 7 7 10 13 18 23 25 18 16 6 5 10 13 15 12 358 346 307 282 278 267 251 245 234 235 250 255 289 314 344 15 39 53
14 11 11 11 10 11 12 13 14 17 22 19 16 21 35 43 40 39 41 42 45 43 41 39 35 21 338 357 43 324 227 222 202 200 145 133 137 128 111 98 85 85 87
13 11 14 14 15 18 21 22 23 35 45 46 48 50 49 50 54 57 58 60 59 57 61 61 61 58 56 53 46 29 14 54 144 139 143 129 146 144 134 114 100 92 87
17 19 20 18 21 22 28 31 42 51 58 61 59 55 51 48 47 51 52 52 52 53 60 62 67 68 67 67 66 66 92 115 127 143 137 141 146 146 129 115 108 98 92
22 24 24 22 23 30 39 48 56 61 59 52 48 46 47 50 55 60 62 65 65 73 77 78 79 79 77 74 73 71 77 88 105 119 129 133 135 137 122 117 109 101 97
28 28 27 25 30 40 52 61 61 57 52 49 50 46 47 53 57 61 66 68 67 69 70 75 78 78 74 71 72 80 82 88 103 114 120 123 128 124 120 114 106 101 98
30 29 30 28 36 48 58 58 57 50 48 50 43 43 45 52 58 63 66 67 68 69 70 71 75 76 76 64 62 66 76 81 87 95 107 113 114 116 113 105 101 103 100
28 29 31 32 38 52 57 57 51 50 50 46 40 44 47 50 56 59 63 66 68 69 66 64 68 68 65 61 62 65 67 78 86 91 96 102 107 110 107 106 106 103 97
26 26 26 32 37 45 51 49 44 48 47 44 42 44 45 49 54 57 59 60 62 62 59 59 58 61 64 65 65 71 75 81 84 89 93 98 99 100 102 104 104 102 99
26 27 27 28 34 39 40 38 43 44 44 42 42 44 47 50 55 60 59 58 58 57 55 55 56 58 62 66 61 61 73 80 82 87 92 92 89 92 96 95 92 92 87
26 26 26 26 30 35 38 39 38 39 38 35 36 41 44 47 53 55 52 50 50 50 50 53 56 58 60 61 57 59 66 75 80 84 88 90 86 87 90 90 90 89 83
22 25 26 24 25 29 33 34 30 22 20 26 30 36 39 42 46 51 52 49 49 51 52 52 50 50 50 52 56 56 53 62 73 77 86 90 90 83 83 86 86 80 71
13 19 23 25 24 24 26 25 25 20 18 19 26 34 38 39 44 45 46 49 50 49 48 47 46 46 47 47 47 44 45 50 61 73 81 89 95 81 67 76 80 81 78
3 10 16 21 24 22 23 22 21 16 5 3 7 23 36 39 39 42 42 42 42 43 44 45 44 43 44 46 47 46 47 50 54 59 73 90 88 75 73 65 67 75 81
5 7 9 15 16 20 24 23 20 15 11 10 17 23 28 39 40 37 37 37 37 37 37 37 38 39 38 37 35 37 43 42 43 51 56 64 71 59 46 48 54 78 85
356 2 7 12 14 15 16 20 28 21 25 37 67 63 42 33 28 23 24 22 23 25 28 29 31 31 30 29 29 29 31 35 33 29 27 34 40 36 24 38 83 134 90
351 353 359 4 11 13 15 13 23 30 29 41 67 64 55 49 42 35 30 28 25 22 21 21 19 17 19 21 20 16 18 21 24 26 20 17 23 13 16 27 48 153 204
339 346 347 354 360 6 11 13 12 23 32 37 47 51 46 44 41 38 35 32 30 28 26 22 18 13 6 359 357 360 5 4 7 14 19 19 27 28 3 323 265 243 239
Height
5705 5698 5690 5684 5677 5670 5664 5658 5653 5648 5644 5641 5638 5636 5632 5630 5628 5628 5627 5627 5625 5625 5625 5628 5629 5631 5635 5635 5640 5640 5644 5645 5644 5648 5653 5653 5654 5655 5656 5654 5654 5651 5651
5694 5688 5682 5675 5669 5662 5656 5650 5645 5641 5637 5634 5631 5627 5624 5621 5620 5618 5617 5616 5615 5614 5614 5615 5615 5617 5622 5625 5628 5630 5633 5635 5635 5637 5640 5641 5642 5643 5643 5642 5641 5640 5638
5688 5681 5675 5669 5662 5655 5649 5644 5640 5636 5632 5628 5624 5621 5618 5615 5613 5610 5608 5607 5606 5606 5605 5604 5600 5603 5611 5616 5620 5622 5625 5626 5627 5629 5630 5632 5632 5632 5632 5632 5630 5629 5626
5683 5676 5669 5663 5657 5651 5646 5640 5636 5631 5627 5623 5619 5615 5612 5609 5605 5600 5598 5598 5598 5596 5595 5595 5595 5598 5601 5607 5606 5610 5613 5615 5617 5619 5621 5623 5623 5624 5624 5623 5621 5617 5613
5679 5672 5665 5659 5653 5647 5641 5635 5630 5625 5621 5617 5613 5610 5606 5602 5598 5592 5590 5590 5590 5589 5587 5588 5590 5592 5596 5598 5599 5602 5602 5604 5607 5611 5611 5614 5615 5616 5615 5613 5609 5605 5601
5677 5670 5663 5655 5649 5642 5636 5630 5625 5620 5615 5611 5607 5603 5600 5596 5592 5588 5585 5585 5585 5583 5583 5582 5581 5588 5590 5590 5593 5593 5595 5597 5599 5602 5604 5606 5607 5607 5604 5601 5598 5594 5590
5676 5668 5660 5652 5644 5638 5631 5626 5620 5615 5611 5607 5603 5599 5595 5592 5588 5585 5581 5580 5581 5579 5578 5580 5581 5584 5585 5587 5587 5588 5589 5591 5592 5594 5596 5597 5598 5598 5596 5594 5591 5587 5583
5675 5666 5658 5651 5643 5637 5630 5625 5619 5614 5609 5604 5600 5596 5592 5589 5586 5583 5581 5579 5579 5579 5579 5579 5580 5581 5583 5582 5583 5585 5586 5586 5587 5588 5588 5590 5591 5592 5590 5588 5585 5581 5579
5675 5667 5660 5652 5645 5638 5631 5626 5620 5615 5609 5604 5600 5596 5593 5590 5587 5584 5582 5580 5579 5578 5578 5578 5578 5579 5580 5581 5582 5582 5582 5582 5582 5585 5586 5587 5588 5587 5586 5586 5583 5580 5578
5678 5670 5663 5655 5647 5640 5633 5627 5621 5615 5611 5606 5602 5599 5596 5593 5590 5587 5585 5583 5582 5581 5580 5578 5579 5580 5581 5580 5580 5580 5580 5581 5580 5581 5583 5585 5586 5586 5586 5586 5584 5581 5578
5681 5673 5665 5657 5650 5643 5636 5629 5623 5618 5614 5610 5607 5604 5600 5597 5595 5592 5590 5587 5585 5584 5583 5582 5581 5581 5581 5581 5581 5580 5579 5580 5582 5583 5583 5584 5585 5587 5587 5586 5584 5582 5580
5685 5677 5669 5661 5654 5647 5640 5634 5629 5624 5620 5617 5614 5610 5607 5603 5600 5597 5595 5592 5591 5589 5588 5587 5587 5587 5586 5586 5585 5583 5582 5582 5582 5583 5584 5585 5587 5587 5587 5587 5586 5584 5582
5688 5680 5673 5666 5658 5651 5645 5640 5636 5632 5629 5625 5621 5617 5613 5609 5605 5603 5601 5599 5597 5595 5594 5593 5593 5592 5591 5590 5588 5587 5585 5585 5585 5585 5586 5587 5588 5589 5589 5589 5588 5586 5584
5693 5685 5677 5670 5663 5657 5652 5648 5645 5641 5637 5633 5628 5624 5619 5615 5612 5609 5606 5604 5603 5601 5601 5599 5599 5598 5597 5595 5594 5592 5591 5589 5589 5589 5589 5590 5591 5591 5591 5591 5590 5589 5588
5699 5691 5683 5676 5669 5665 5661 5656 5653 5649 5645 5640 5635 5631 5626 5623 5620 5616 5613 5611 5609 5608 5607 5606 5604 5604 5602 5601 5599 5597 5595 5594 5593 5592 5592 5593 5593 5593 5594 5594 5593 5592 5592
5705 5698 5690 5683 5676 5672 5669 5665 5661 5656 5652 5648 5643 5638 5634 5630 5626 5623 5621 5618 5616 5614 5613 5612 5610 5609 5607 5605 5603 5602 5601 5599 5598 5597 5597 5597 5597 5597 5597 5597 5596 5596 5596
5711 5704 5698 5690 5683 5679 5675 5672 5668 5663 5659 5654 5650 5646 5641 5637 5633 5630 5628 5625 5622 5620 5619 5616 5614 5612 5611 5609 5607 5605 5605 5604 5603 5602 5602 5602 5602 5602 5601 5600 5600 5600 5599
5716 5710 5703 5697 5690 5685 5681 5677 5673 5669 5665 5661 5657 5653 5649 5644 5641 5637 5634 5631 5628 5626 5624 5622 5619 5617 5615 5614 5612 5610 5609 5608 5608 5607 5607 5606 5606 5605 5605 5605 5604 5604 5603
5721 5715 5709 5703 5697 5691 5686 5681 5678 5674 5670 5666 5663 5658 5655 5651 5647 5643 5640 5637 5635 5632 5629 5627 5625 5622 5620 5618 5616 5615 5613 5612 5612 5611 5610 5610 5610 5609 5609 5608 5608 5608 5607
5725 5719 5714 5708 5703 5697 5691 5686 5682 5678 5674 5671 5667 5663 5660 5657 5653 5650 5647 5644 5641 5638 5635 5632 5630 5627 5624 5622 5621 5619 5617 5616 5615 5614 5614 5613 5613 5613 5612 5612 5611 5610 5610
5728 5723 5717 5713 5708 5702 5697 5691 5686 5681 5677 5674 5670 5667 5664 5662 5659 5656 5653 5650 5647 5644 5641 5638 5635 5632 5629 5626 5624 5622 5621 5620 5618 5617 5617 5616 5616 5616 5615 5615 5614 5613 5612
5731 5726 5720 5716 5711 5706 5701 5696 5690 5684 5679 5675 5673 5670 5668 5665 5663 5660 5657 5654 5652 5649 5646 5643 5640 5637 5634 5631 5628 5626 5624 5622 5621 5620 5619 5619 5619 5618 5618 5617 5616 5615 5614
5731 5728 5723 5718 5713 5708 5704 5699 5694 5687 5679 5674 5673 5672 5670 5668 5666 5664 5661 5659 5656 5653 5650 5647 5644 5641 5638 5635 5632 5630 5627 5625 5624 5622 5621 5621 5620 5619 5619 5618 5617 5617 5616
5732 5728 5724 5720 5716 5710 5706 5702 5696 5691 5683 5676 5674 5674 5672 5670 5669 5666 5664 5661 5659 5656 5653 5650 5647 5644 5642 5639 5636 5633 5630 5628 5625 5623 5622 5621 5620 5619 5619 5618 5618 5618 5618
5731 5728 5725 5721 5717 5713 5709 5704 5699 5695 5690 5684 5680 5678 5676 5673 5671 5669 5666 5663 5661 5658 5655 5652 5649 5646 5644 5641 5638 5635 5633 5630 5627 5625 5623 5621 5620 5619 5619 5618 5618 5618 5618
5730 5727 5724 5721 5718 5715 5711 5707 5703 5698 5695 5690 5686 5683 5680 5677 5674 5672 5669 5666 5663 5660 5657 5654 5651 5648 5645 5642 5639 5636 5634 5631 5629 5626 5624 5622 5620 5619 5618 5618 5618 5617 5617